Weather in Tatarskiye Suksy

Russia / Republic of Tatarstan     55°45′08″N   53°39′36″E
temp.,
°C
wind,
m/s
gust,
m/s
humid.,
%
clouds,
%
prec.,
mm/h
press.,
hPa
HPBL,
m
28 july, wed
wed2800:00+11nw23755 0.0 101434
03:00+9n22860 0.0 101511
06:00+13nnw35600 0.0 1015345
09:00+18nnw57395 0.0 10151667
12:00+21nnw673310 0.0 10142312
15:00+21nnw683219 0.0 10132422
18:00+20n464087 0.0 1013739
21:00+13se116317 0.0 101410
29 july, thu
thu2900:00+12ssw336521 0.0 101338
03:00+11wsw36700 0.0 101385
06:00+16wsw59526 0.0 1013306
09:00+23w68323 0.0 10111761
12:00+26w672762 0.0 10102550
15:00+26w5630100 0.0 10082364
18:00+22w5952100 0.0 1008711
21:00+15ssw41192100 0.5 1008410
30 july, fri
fri3000:00+15sse41096100 3.7 1005422
03:00+16s4892100 3.8 1004337
06:00+16wsw4894100 0.0 1003500
09:00+18w578663 0.1 1003670
12:00+24wnw685382 0.5 10041688
15:00+26w6847100 0.5 10041974
18:00+24wsw5853100 0.0 1005611
21:00+20wsw4876100 0.0 1006149
31 july, sat
sat3100:00+19sw3779100 0.0 1006150
03:00+18wsw5993100 1.7 1007251
06:00+17s3598100 5.3 1007215
09:00+19s489292 8.3 1006445
12:00+23sw467122 0.1 1005633
15:00+28w6952100 0.1 10031924
18:00+24w586912 0.1 1004831
21:00+19w38932 0.2 1006167
1 august, sun
sun100:00+18wsw34931 0.0 100768
03:00+17wsw38940 0.0 1007158
06:00+19wsw47751 0.0 1009228
09:00+25w5748100 0.0 1009914
12:00+28w7103950 0.0 10092418
15:00+28w793673 0.0 10102138
18:00+25wnw474666 0.0 1010248
21:00+20w226183 0.0 101111